Home   Weather   Rasht   Past weeks
Flag for Iran

Past Weather in Rasht, Iran — Yesterday and Last 2 Weeks

Now
36 °F

Fog.


Feels Like: 36 °F
Forecast: 53 / 37 °F
Wind: No wind

Location: Rasht Airport

Current Time: Jan 22, 2019 at 6:13:16 am

Latest Report: Jan 22, 2019 at 5:30 am


Visibility: 1 mi

Pressure: 30.04 "Hg

Humidity: 100%

Dew Point: 36 °F

Location of RashtLocation

Past Weather in Rasht — Graph

°F

Rasht Temperature Yesterday

Maximum temperature yesterday: 54 °F (at 2:30 pm)
Minimum temperature yesterday: 34 °F (at 4:30 am)
Average temperature yesterday: 43 °F

High & Low Weather Summary for the Past Weeks

 TemperatureHumidityPressure
High75 °F (Jan 16, 12:00 pm)100% (Jan 7, 5:30 am)30.33 "Hg (Jan 7, 5:30 am)
Low32 °F (Jan 11, 7:30 am)12% (Jan 7, 2:30 pm)29.53 "Hg (Jan 17, 4:30 am)
Average49 °F76%30.00 "Hg
* Reported Jan 7 4:30 am — Jan 22 4:30 am, Rasht. Weather by CustomWeather, © 2019

Note: Actual official high and low records may vary slightly from our data, if they occured in-between our weather recording intervals... More about our weather records

Advertising

Rasht Weather History for the Previous 24 Hours

Scroll right to see more
 ConditionsComfort  
Time TempWeatherWind HumidityBarometerVisibility
4:30 am
Tue, Jan 22
36 °FFog.No wind100%30.04 "Hg0 mi
3:30 am39 °FFog.No wind100%30.04 "Hg1 mi
2:30 am41 °FFog.No wind100%30.07 "Hg2 mi
1:30 am43 °FFog.5 mph93%30.07 "Hg2 mi
12:30 am43 °FFog.5 mph93%30.09 "Hg2 mi
11:30 pm
Mon, Jan 21
43 °FFog.5 mph93%30.09 "Hg2 mi
10:30 pm43 °FFog.5 mph93%30.09 "Hg2 mi
9:30 pm43 °FFog.5 mph93%30.12 "Hg2 mi
9:00 pm43 °FFog.2 mph93%30.12 "Hg2 mi
8:30 pm43 °FFog.No wind93%30.12 "Hg2 mi
8:00 pm43 °FPassing clouds.No wind93%30.15 "Hg5 mi
7:30 pm43 °FPassing clouds.No wind93%30.15 "Hg5 mi
7:00 pm45 °FPassing clouds.No wind87%30.15 "Hg5 mi
6:30 pm45 °FPassing clouds.No wind87%30.15 "Hg5 mi
5:30 pm46 °FPassing clouds.5 mph82%30.15 "Hg5 mi
5:00 pm50 °FPassing clouds.7 mph71%30.18 "Hg5 mi
4:30 pm50 °FPassing clouds.7 mph71%30.18 "Hg5 mi
4:00 pm52 °FPassing clouds.5 mph62%30.18 "Hg5 mi
3:30 pm52 °FPassing clouds.5 mph62%30.18 "Hg5 mi
3:00 pm54 °FPassing clouds.5 mph58%30.18 "Hg5 mi
2:30 pm54 °FPassing clouds.9 mph58%30.18 "Hg5 mi
2:00 pm52 °FClear.5 mph77%30.21 "Hg5 mi
1:30 pm52 °FClear.5 mph62%30.21 "Hg5 mi
1:00 pm50 °FClear.5 mph67%30.24 "Hg5 mi
12:30 pm50 °FClear.5 mph67%30.24 "Hg5 mi
12:00 pm48 °FHaze.5 mph76%30.30 "Hg2 mi
11:30 am48 °FHaze.5 mph76%30.30 "Hg2 mi
11:00 am46 °FFog.5 mph87%30.30 "Hg2 mi
10:30 am46 °FFog.5 mph82%30.30 "Hg2 mi
10:00 am45 °FFog.5 mph93%30.33 "Hg2 mi
9:30 am41 °FFog.No wind93%30.33 "Hg1 mi
9:00 am39 °FFog.No wind93%30.33 "Hg2 mi
8:30 am36 °FFog.No wind93%30.30 "Hg1 mi
8:00 am34 °FFog.No wind100%30.33 "Hg1 mi
7:30 am34 °FFog.No wind100%30.30 "Hg1 mi
7:00 am34 °FFog.No wind93%30.30 "Hg2 mi
6:30 am34 °FFog.No wind100%30.27 "Hg2 mi
6:00 am36 °FFog.No wind100%30.30 "Hg2 mi
Weather by CustomWeather, © 2019

See weather overview